[[{"header":{"parameterUnit":"m.s-1","parameterCategory":1,"la1":30.2991,"la2":30.254,"lo1":-89.0895,"lo2":-89.0444,"dy":0.0017,"dx":0.0017,"nx":28,"ny":28,"refTime":"2024-12-22T03:00:00:Z","depth":0,"parameterNumber":2,"parameterNumberName":"U-component_of_WINDS"},"data":[0,0,0,0,0,0,0,0,0,0,0,0,0,0,0,0,0,0,0,0,0,0,0,0,0,0,0,0,0,0,0,0,0,0,0,0,0,0,0,0,0,0,0,0,0,0,0,0,0,0,0,0,0,0,0,0,0,0,0.8532,0.8532,0,0.854,0.854,0.854,0.8533,0.8533,0.8533,0.8533,0.854,0.8541,0.8541,0,0,0,0,0,0,0,0,0,0,0,0,0,0.8514,0.8514,0.8532,0.8532,0.8532,0.854,0.854,0.854,0.8533,0.8533,0.8533,0.8532,0.854,0.8541,0.8541,0,0,0,0,0,0,0,0,0,0,0,0,0,0.8522,0.8514,0.8532,0.853,0.853,0.854,0.854,0.854,0.8533,0.8533,0.8533,0.8532,0.854,0.8541,0.8541,0.8553,0,0,0.8543,0.8544,0,0,0,0,0,0,0,0,0.8521,0.8522,0.853,0.853,0.853,0.8535,0.8536,0.8544,0.8534,0.8532,0.8533,0.8532,0.8539,0.854,0.8542,0.8554,0.8554,0.8543,0.8544,0.8544,0.8544,0,0,0,0,0,0,0,0.8521,0.8522,0.8535,0.853,0.853,0.8529,0.853,0.8538,0.8538,0.8532,0.8532,0.8533,0.8539,0.8541,0.8542,0.8554,0.8543,0.8544,0.8544,0.8545,0.8578,0.8578,0,0,0,0,0,0,0.852,0.8522,0.8535,0.8535,0.8525,0.853,0.8531,0.8534,0.8538,0.8538,0.8533,0.8532,0.854,0.8541,0.8542,0.8557,0.8544,0.8545,0.8545,0.8577,0.8578,0.8578,0,0,0,0,0,0,0.852,0.8522,0.8535,0.8528,0.853,0.8531,0.8534,0.8534,0.8537,0.8538,0.8538,0.8535,0.854,0.8541,0.8551,0.8558,0.8545,0.8546,0.8577,0.8577,0.8578,0.8587,0,0,0,0,0,0,0.8519,0.8521,0.8526,0.8529,0.853,0.8543,0.8535,0.8535,0.8538,0.8537,0.854,0.8541,0.854,0.855,0.8552,0.8558,0.8546,0.8576,0.8577,0.8578,0.8586,0.8588,0.859,0,0,0,0,0,0.8519,0.8528,0.8526,0.8527,0.8536,0.8543,0.8544,0.8543,0.8538,0.8543,0.8544,0.8541,0.8557,0.8551,0.8553,0.856,0.8576,0.8577,0.8578,0.8586,0.8588,0.859,0,0,0,0,0,0,0.8525,0.8528,0.8526,0.8536,0.8539,0.8542,0.8548,0.8545,0.855,0.8549,0.8547,0.8548,0.8559,0.856,0.8554,0.8572,0.8565,0.8567,0.8571,0.8573,0.8575,0.8574,0.8547,0,0,0,0,0,0.8528,0.8534,0.8536,0.8544,0.8546,0.8547,0.855,0.8549,0.8552,0.8554,0.8556,0.8559,0.8565,0.8569,0.8575,0.8587,0.8588,0.8593,0.8594,0.8596,0.8597,0.8605,0.8607,0.8582,0.8582,0.8582,0,0,0.8533,0.8535,0.8539,0.8546,0.8548,0.8555,0.8548,0.8555,0.856,0.8555,0.8564,0.8566,0.857,0.8581,0.8586,0.8583,0.8605,0.8597,0.8598,0.8599,0.8606,0.8609,0.8611,0.8583,0.8582,0.8582,0,0,0.8546,0.8548,0.8556,0.8559,0.8563,0.8564,0.8566,0.8569,0.857,0.858,0.8577,0.8583,0.8593,0.8596,0.8599,0.8616,0.8613,0.8618,0.8626,0.8634,0.8636,0.8638,0.8644,0.8647,0.8619,0.8619,0.8619,0,0.8553,0.8562,0.8561,0.8568,0.8572,0.8568,0.8577,0.858,0.8585,0.8588,0.8584,0.8598,0.86,0.8613,0.8617,0.8619,0.8622,0.8617,0.8636,0.8638,0.8639,0.8646,0.8648,0.8619,0.8619,0.8619,0.8619,0,0.857,0.8576,0.8582,0.8589,0.8593,0.8601,0.8601,0.8606,0.8605,0.8606,0.8616,0.862,0.8626,0.8629,0.8628,0.8642,0.864,0.8636,0.8629,0.8642,0.8648,0.865,0.862,0.862,0.862,0.862,0,0,0.8586,0.8593,0.8595,0.8598,0.8603,0.8608,0.8617,0.8624,0.8628,0.8632,0.864,0.8649,0.8646,0.865,0.8649,0.8656,0.867,0.8651,0.8651,0.8655,0.8686,0.869,0.8692,0.8668,0.8668,0.8669,0.8686,0,0.86,0.8614,0.8614,0.8628,0.8635,0.8632,0.8639,0.8644,0.8645,0.8652,0.8654,0.8661,0.8655,0.8658,0.8664,0.8666,0.8676,0.8665,0.8675,0.8676,0.8675,0.8695,0.8698,0.8715,0.8689,0.8689,0.8689,0,0.8618,0.8624,0.8638,0.8643,0.8646,0.8652,0.8659,0.8665,0.8671,0.8671,0.8676,0.8675,0.8684,0.8677,0.8691,0.8683,0.8688,0.869,0.869,0.8691,0.8683,0.8697,0.872,0.8722,0.8693,0.8692,0.8692,0,0.8629,0.8641,0.8651,0.8654,0.866,0.8665,0.8668,0.8672,0.8677,0.8683,0.8686,0.8693,0.8697,0.8703,0.8705,0.8699,0.8718,0.8711,0.872,0.872,0.8724,0.8724,0.8748,0.8726,0.8726,0.8726,0.8726,0,0.8645,0.8654,0.8656,0.8662,0.8673,0.8673,0.8684,0.8686,0.8691,0.8698,0.8696,0.8703,0.8704,0.8712,0.8713,0.8724,0.8726,0.8727,0.8728,0.8728,0.8728,0.873,0.873,0.8727,0.8727,0.8726,0.8726,0,0.8659,0.8661,0.8672,0.8678,0.8679,0.8687,0.8692,0.8698,0.87,0.8709,0.8712,0.8715,0.8724,0.8725,0.8736,0.8737,0.8751,0.8749,0.8749,0.8749,0.8758,0.8757,0.8785,0.8789,0.8764,0.8764,0.8765,0,0.8669,0.8676,0.8683,0.8688,0.8691,0.8698,0.8703,0.8704,0.871,0.8717,0.8723,0.8732,0.8739,0.8753,0.8756,0.8765,0.8764,0.8773,0.8765,0.8766,0.8765,0.8765,0.8766,0.8775,0.8775,0.8775,0.8776,0,0.8687,0.8688,0.8695,0.8703,0.8709,0.8715,0.872,0.8725,0.8727,0.8733,0.8742,0.8748,0.8759,0.8768,0.8776,0.878,0.8778,0.8778,0.8781,0.8781,0.8781,0.8782,0.8753,0.8777,0.8777,0.8777,0.8777,0.8777,0.87,0.8707,0.8712,0.8721,0.8725,0.8731,0.8738,0.8741,0.8749,0.8758,0.8758,0.8768,0.8775,0.8786,0.8791,0.8799,0.8796,0.88,0.8801,0.8802,0.8803,0.8779,0.8801,0.8801,0.88,0.88,0.88,0,0.8718,0.8722,0.873,0.8738,0.8745,0.8743,0.875,0.8756,0.8765,0.8771,0.8778,0.879,0.8799,0.8804,0.8813,0.8819,0.8819,0.8821,0.8821,0.8822,0.8804,0.8802,0.8822,0.8822,0.8822,0.8822,0.8822,0.8822,0.8729,0.874,0.8742,0.8756,0.876,0.877,0.8774,0.878,0.8785,0.8797,0.8805,0.8808,0.8814,0.8824,0.8833,0.8834,0.8838,0.8841,0.8842,0.8825,0.8823,0.8821,0.8818,0.8842,0.8842,0.8859,0.8859,0.8859]},{"header":{"parameterUnit":"m.s-1","parameterCategory":1,"la1":30.2991,"la2":30.254,"lo1":-89.0895,"lo2":-89.0444,"dy":0.0017,"dx":0.0017,"nx":28,"ny":28,"refTime":"2024-12-22T03:00:00:Z","depth":0,"parameterNumber":3,"parameterNumberName":"V-component_of_WINDS"},"data":[0,0,0,0,0,0,0,0,0,0,0,0,0,0,0,0,0,0,0,0,0,0,0,0,0,0,0,0,0,0,0,0,0,0,0,0,0,0,0,0,0,0,0,0,0,0,0,0,0,0,0,0,0,0,0,0,0,0,-5.2785,-5.2786,0,-5.2874,-5.2875,-5.2876,-5.2872,-5.2871,-5.2869,-5.2868,-5.2953,-5.2957,-5.296,0,0,0,0,0,0,0,0,0,0,0,0,0,-5.2608,-5.2611,-5.2785,-5.2786,-5.2787,-5.2874,-5.2875,-5.2876,-5.2872,-5.2871,-5.2869,-5.2868,-5.2952,-5.2956,-5.296,0,0,0,0,0,0,0,0,0,0,0,0,0,-5.269,-5.2613,-5.2785,-5.2796,-5.2798,-5.2873,-5.2875,-5.2876,-5.2872,-5.2871,-5.2869,-5.2867,-5.2951,-5.2956,-5.2961,-5.303,0,0,-5.2976,-5.2979,0,0,0,0,0,0,0,0,-5.2685,-5.2696,-5.2793,-5.2795,-5.2798,-5.286,-5.2844,-5.2928,-5.2873,-5.2844,-5.2868,-5.2866,-5.2923,-5.2931,-5.2951,-5.3034,-5.3037,-5.2977,-5.298,-5.2982,-5.2984,0,0,0,0,0,0,0,-5.2679,-5.2692,-5.282,-5.2795,-5.2797,-5.2795,-5.2805,-5.286,-5.2893,-5.2846,-5.2846,-5.2857,-5.2924,-5.2946,-5.2953,-5.3038,-5.2977,-5.2981,-5.2985,-5.2987,-5.3183,-5.3185,0,0,0,0,0,0,-5.2672,-5.2688,-5.2817,-5.2823,-5.2736,-5.28,-5.281,-5.2842,-5.2892,-5.2898,-5.2859,-5.2857,-5.2938,-5.2947,-5.2956,-5.3041,-5.2982,-5.2987,-5.299,-5.3181,-5.3184,-5.3186,0,0,0,0,0,0,-5.2668,-5.2684,-5.2814,-5.2755,-5.2772,-5.2805,-5.284,-5.2844,-5.2867,-5.2902,-5.2907,-5.2875,-5.2937,-5.2949,-5.3012,-5.3044,-5.2989,-5.2994,-5.3179,-5.3182,-5.3185,-5.3211,0,0,0,0,0,0,-5.2663,-5.2682,-5.271,-5.2756,-5.2775,-5.287,-5.2842,-5.2848,-5.2876,-5.2874,-5.2919,-5.2924,-5.2937,-5.3005,-5.3017,-5.305,-5.2998,-5.3176,-5.318,-5.3184,-5.3207,-5.3215,-5.3221,0,0,0,0,0,-5.2657,-5.2712,-5.2711,-5.2727,-5.281,-5.2871,-5.2882,-5.2897,-5.2879,-5.2906,-5.2929,-5.2923,-5.3039,-5.3011,-5.3025,-5.306,-5.3174,-5.3179,-5.3184,-5.3204,-5.3213,-5.3221,0,0,0,0,0,0,-5.2665,-5.2718,-5.2718,-5.2789,-5.2826,-5.2871,-5.2905,-5.2906,-5.2947,-5.2943,-5.2958,-5.2968,-5.3032,-5.3052,-5.3021,-5.313,-5.3104,-5.3112,-5.3115,-5.3123,-5.313,-5.3124,-5.3002,0,0,0,0,0,-5.2676,-5.2723,-5.2766,-5.2825,-5.2844,-5.2872,-5.2899,-5.2908,-5.2945,-5.296,-5.2988,-5.3023,-5.3068,-5.3097,-5.3139,-5.321,-5.322,-5.3241,-5.3248,-5.3254,-5.326,-5.33,-5.3311,-5.3202,-5.3202,-5.3202,0,0,-5.2698,-5.2732,-5.2761,-5.2828,-5.2857,-5.2905,-5.2885,-5.2935,-5.297,-5.2967,-5.303,-5.3051,-5.3092,-5.316,-5.3191,-5.3179,-5.3292,-5.326,-5.3264,-5.3267,-5.3306,-5.3317,-5.3326,-5.3205,-5.3205,-5.3204,0,0,-5.2762,-5.2793,-5.2846,-5.2877,-5.2923,-5.2942,-5.2955,-5.3,-5.3015,-5.3078,-5.3078,-5.3119,-5.3195,-5.3225,-5.3249,-5.3327,-5.3324,-5.3341,-5.3376,-5.3415,-5.3423,-5.3431,-5.3459,-5.3469,-5.3347,-5.3347,-5.3347,0,-5.2782,-5.2856,-5.2873,-5.2925,-5.2955,-5.2957,-5.3011,-5.304,-5.3096,-5.3116,-5.3102,-5.32,-5.3227,-5.3303,-5.3322,-5.3342,-5.3357,-5.3335,-5.3421,-5.3429,-5.3436,-5.3464,-5.3474,-5.3349,-5.3349,-5.3349,-5.3348,0,-5.2879,-5.293,-5.2967,-5.3025,-5.3059,-5.3112,-5.3136,-5.3168,-5.3174,-5.3194,-5.3259,-5.3292,-5.3343,-5.3361,-5.3366,-5.3438,-5.3429,-5.3418,-5.3392,-5.3448,-5.3474,-5.3485,-5.3352,-5.3351,-5.335,-5.335,0,0,-5.2949,-5.3019,-5.3032,-5.3059,-5.3111,-5.315,-5.3203,-5.3255,-5.3282,-5.3321,-5.3366,-5.3432,-5.3423,-5.3451,-5.346,-5.3494,-5.3555,-5.3479,-5.348,-5.3492,-5.3636,-5.3645,-5.3657,-5.3553,-5.3555,-5.3557,-5.3633,0,-5.3019,-5.3115,-5.3134,-5.3216,-5.3264,-5.3268,-5.3314,-5.3351,-5.3371,-5.3413,-5.3434,-5.3481,-5.3465,-5.3483,-5.3517,-5.354,-5.3584,-5.3535,-5.3593,-5.3595,-5.3584,-5.367,-5.3679,-5.3749,-5.3643,-5.3645,-5.3646,0,-5.3113,-5.3158,-5.3247,-5.3295,-5.3315,-5.3357,-5.3406,-5.3447,-5.3488,-5.3501,-5.3534,-5.354,-5.3594,-5.3566,-5.3641,-5.3607,-5.3632,-5.3647,-5.365,-5.3656,-5.3624,-5.3678,-5.3772,-5.3783,-5.3662,-5.3661,-5.366,0,-5.3156,-5.3239,-5.3303,-5.3326,-5.3383,-5.3412,-5.3437,-5.3477,-5.3508,-5.3551,-5.3571,-5.3618,-5.3645,-5.3681,-5.3699,-5.3677,-5.3773,-5.3746,-5.3784,-5.3784,-5.3804,-5.3802,-5.3903,-5.382,-5.3819,-5.3819,-5.3819,0,-5.3232,-5.3286,-5.3324,-5.3363,-5.3424,-5.3445,-5.3504,-5.3528,-5.3564,-5.3607,-5.3613,-5.3653,-5.3674,-5.3718,-5.3732,-5.3792,-5.3803,-5.3814,-5.3817,-5.3814,-5.3813,-5.3831,-5.3826,-5.3822,-5.3821,-5.3821,-5.382,0,-5.329,-5.3318,-5.3388,-5.3438,-5.3452,-5.3495,-5.3536,-5.3574,-5.3595,-5.365,-5.3664,-5.3697,-5.3748,-5.377,-5.3832,-5.3842,-5.3911,-5.3911,-5.3898,-5.3899,-5.3936,-5.3933,-5.4052,-5.4069,-5.3974,-5.3975,-5.3976,0,-5.3337,-5.338,-5.3435,-5.3466,-5.3493,-5.3541,-5.3574,-5.3596,-5.3628,-5.368,-5.3712,-5.3764,-5.3807,-5.3889,-5.3917,-5.3965,-5.3966,-5.4004,-5.3973,-5.3969,-5.3967,-5.3964,-5.3969,-5.401,-5.4011,-5.4012,-5.4012,0,-5.3418,-5.343,-5.3477,-5.353,-5.3569,-5.3611,-5.3652,-5.3676,-5.3704,-5.3741,-5.3795,-5.3829,-5.3895,-5.3946,-5.3997,-5.402,-5.4021,-5.4022,-5.4034,-5.4031,-5.4022,-5.4028,-5.3914,-5.4019,-5.4019,-5.4018,-5.4018,-5.4017,-5.3472,-5.3511,-5.3557,-5.3609,-5.3643,-5.3682,-5.3721,-5.3748,-5.3795,-5.3852,-5.3861,-5.3919,-5.396,-5.4028,-5.4055,-5.4099,-5.4089,-5.4106,-5.411,-5.4114,-5.4117,-5.4015,-5.4108,-5.4108,-5.4108,-5.4108,-5.4108,0,-5.3553,-5.3584,-5.3633,-5.3691,-5.3733,-5.3733,-5.3779,-5.3813,-5.3865,-5.3905,-5.3948,-5.4011,-5.4061,-5.4095,-5.4146,-5.4175,-5.4177,-5.4188,-5.4186,-5.4191,-5.4122,-5.4107,-5.4186,-5.4186,-5.4186,-5.4186,-5.4186,-5.4186,-5.36,-5.3666,-5.3684,-5.3767,-5.3796,-5.3855,-5.3882,-5.3917,-5.3949,-5.402,-5.4064,-5.4086,-5.4123,-5.4177,-5.4224,-5.4232,-5.425,-5.4262,-5.427,-5.4204,-5.4196,-5.4188,-5.4175,-5.4266,-5.4266,-5.4336,-5.4336,-5.4337]}]]